Regional Weather Roundup
Issued by NWS

Home | Current Version | Previous Version | Text Only | Print | Product List | Glossary Off
Versions: 1 2 3 4 5 6 7 8 9 10 11 12 13 14 15 16 17 18 19 20 21 22 23 24 25 26 27 28 29 30 31 32 33 34 35 36 37 38 39 40 41 42 43 44 45 46 47 48 49 50

000
ASUS43 KTOP 031259
RWRKS

WEATHER ROUNDUP FOR KANSAS
NATIONAL WEATHER SERVICE GOODLAND KS
800 AM CDT FRI JUL 03 2015

NOTE:  "FAIR" INDICATES FEW OR NO CLOUDS BELOW 12,000 FEET WITH NO
SIGNIFICANT WEATHER AND/OR OBSTRUCTIONS TO VISIBILITY.

KSZ001>006-013>018-027>032-041>047-031400-
NORTHWEST KANSAS

CITY           SKY/WX    TMP DP  RH WIND       PRES   REMARKS
GOODLAND       PTSUNNY   65  60  84 NE5       30.11F
HAYS           CLOUDY    64  57  77 N8        30.04R
HILL CITY      CLOUDY    66  64  93 VRB5      30.06S FOG
RUSSELL        CLOUDY    64  63  96 N9        30.01S FOG
$$

KSZ061>065-074>080-084>089-031400-
SOUTHWEST KANSAS

CITY           SKY/WX    TMP DP  RH WIND       PRES   REMARKS
DODGE CITY     SUNNY     71  63  75 N7        30.04R
ELKHART          N/A     67  58  73 W6          N/A
GARDEN CITY    PTSUNNY   69  62  78 NE8       30.05R
GREAT BEND     SUNNY     68  63  83 N12       30.02R
LIBERAL        MOSUNNY   70  64  83 NE6       30.07R
$$

KSZ066>073-081>083-090>101-031400-
SOUTHEAST KANSAS

CITY           SKY/WX    TMP DP  RH WIND       PRES   REMARKS
CHANUTE        CLOUDY    70  70 100 CALM      29.91S FOG
COFFEYVILLE    SUNNY     72  69  90 CALM      29.91R
HUTCHINSON     SUNNY     69  64  84 N14       29.97R
MEDICINE LODGE   N/A     72  67  84 N3        29.96S
NEWTON         CLOUDY    64  61  88 N14       29.97R VSB 1/2
PARSONS        PTSUNNY   72  71  97 CALM      29.92S
WICHITA INTL   SUNNY     72  66  81 N12       29.94R
WICHITA JABRA  SUNNY     70  66  87 NW10      29.94R
WINFIELD         N/A     71  70  96 W8        29.94S
$$

KSZ007>012-019>026-033>040-048>060-102>105-031400-
NORTHEAST KANSAS

CITY           SKY/WX    TMP DP  RH WIND       PRES   REMARKS
CONCORDIA      CLOUDY    67  65  93 NE8       30.00R
EMPORIA        PTSUNNY   68  67  96 NW3       29.92F
LAWRENCE       CLOUDY    66  63  90 CALM      29.95R
MANHATTAN      LGT RAIN  69  67  93 NE6       29.94S FOG
OLATHE IND     CLOUDY    66  64  93 E6        29.95R
OLATHE EXE     LGT RAIN  64  64 100 E6        29.94R FOG
SALINA         CLOUDY    71  66  84 N10       29.97R
TOPEKA BILLARD LGT RAIN  67  65  93 NE6       29.95R
TOPEKA FORBES  HVY RAIN  66  64  93 NE7       29.94S VSB 1
$$


USA.gov is the U.S. government's official web portal to all federal, state and local government web resources and services.